星链-2450 (STARLINK-2450 )

导读 | 星芒AI

STARLINK-2450 是 SpaceX Starlink 卫星互联网项目中的一颗低轨通信卫星。它属于第二代 Starlink 卫星,旨在提供更高速度、更低延迟的全球宽带服务。该卫星采用先进推进系统和激光通信技术,以提升网络效率和稳定性。STARLINK-2450 于近期成功发射,加入 Starlink 群体,为全球用户提供更优质的互联网接入服务,特别是在偏远和网络基础设施薄弱的地区。

基本信息
目录编号:
48113
目录名称:
STARLINK-2450
国际标识:
2021-027X
轨道中心:
EARTH
卫星名称:
星链-2450
卫星全名:
星链-2450 (STARLINK-2450 )
卫星状态:
在轨 (已飞行1667 天)
发射日期:
2021-04-07 UTC
国别 :
美国 (US)
星等 :
--
轨道信息
数据来源 国际轨道数据
星历时间: 2025-10-30T07:40:19+0800
13小时前
查看轨道信息
半长轴: 6925.372km
偏心率: 0.0001514
轨道倾角: 53.056°
近地点辐角 95.068°
升交点赤经 38.368°
平近点角 265.048°
近地点: 546.188km
远地点: 548.286km
周期: 95.593分钟
每日圈数: 15.063925
详细信息
固有亮度:
5
最大亮度:
2.5
卫星平台:
Starlink V1.0
覆盖范围:
全球
运营商:
太空探索技术公司
运营商所在国:
美国
制造商(研发单位):
太空探索技术公司
制造商所在国:
美国
使用方式:
暂无
卫星简介
星链(Starlink)计划是由太空探索技术公司(SpaceX)提出的一个巨型低轨卫星互联网星座项目,计划在2019年至2024年间在太空搭建由约1.2万颗卫星组成的“星链”网络,其中1584颗将部署在地球上空550千米处的近地轨道,并从2020年开始工作。该卫星仍在工作。
2D轨道图
3D轨道图
轨道高度分析图
轨道倾角分析图
轨道综合分析图
查看轨道综合分析图